Regional Weather Roundup
Issued by NWS

Home | Current Version | Previous Version | Text Only | Print | Product List | Glossary Off
Versions: 1 2 3 4 5 6 7 8 9 10 11 12 13 14 15 16 17 18 19 20 21 22 23 24 25 26 27 28 29 30 31 32 33 34 35 36 37 38 39 40 41 42 43 44 45 46 47 48 49 50

000
ASUS43 KLMK 160810
RWRKY
KENTUCKY REGIONAL WEATHER ROUNDUP
NATIONAL WEATHER SERVICE LOUISVILLE KY
400 AM EDT WED APR 16 2014

NOTE "FAIR" INDICATES FEW OR NO CLOUDS BELOW 12,000 FEET
WITH NO SIGNIFICANT WEATHER AND/OR OBSTRUCTIONS TO VISIBILITY.

KYZ001>023-026-027-061>063-070>075-160900-
WESTERN AND SOUTH CENTRAL KENTUCKY

CITY           SKY/WX    TMP DP  RH WIND       PRES   REMARKS
PADUCAH        CLEAR     33  26  75 SE5       30.27F WCI  29
HENDERSON      PTCLDY    34  23  64 SE7       30.30R WCI  28
OWENSBORO      CLEAR     31  28  88 CALM      30.32R
HOPKINSVILLE   CLEAR     32  27  80 E3        30.29S
BOWLING GREEN  CLEAR     30  24  78 CALM      30.32R
GLASGOW        CLEAR     30  23  74 CALM      30.31R
$$

KYZ024-025-028>034-038-045-046-053-160900-
NORTH CENTRAL KENTUCKY

CITY           SKY/WX    TMP DP  RH WIND       PRES   REMARKS
LOUISVILLE/SDF CLEAR     33  20  58 E3        30.33R
LOUISVILLE/LOU CLEAR     33  21  61 CALM      30.33R
FORT KNOX      CLEAR     31  22  69 E3        30.31R
$$

KYZ035>037-039>044-047>052-055>060-089>105-160900-
NORTHEAST KENTUCKY

CITY           SKY/WX    TMP DP  RH WIND       PRES   REMARKS
LEXINGTON      CLEAR     30  19  63 E5        30.30R WCI  25
COVINGTON      CLEAR     29  17  61 E5        30.31R WCI  24
FRANKFORT      CLEAR     26  22  84 CALM      30.30R
$$

KYZ054-064>069-076>088-106>120-160900-
SOUTHEAST KENTUCKY

CITY           SKY/WX    TMP DP  RH WIND       PRES   REMARKS
JACKSON        CLEAR     28  19  69 NE5       30.27R WCI  23
LONDON         CLEAR     29  22  75 N3        30.27R
SOMERSET       CLEAR     28  23  80 CALM      30.31R
MIDDLESBORO    CLEAR     29  24  81 CALM      30.28R
MONTICELLO     SUNNY     78  75  90 CALM      30.31R
$$




USA.gov is the U.S. government's official web portal to all federal, state and local government web resources and services.